Theta_e
323 323 324 324 324 325 326 326 327 328 329 330 330 331 331 331 332 333 333 332 332 332 332 333 332 331 333 334 334 334 334 334 335 334 334 334 334 333 333 332 332 333 333 333 333 332 332 332 331 332 332 331 331 331 331 332 332 331 330 330 331 331 331 331 330 331 330 329 329 327 327 326 324 323 319 315 317 322 321 315 308 311 317 312 308
322 322 323 323 323 324 325 326 327 327 328 329 330 330 331 331 331 332 334 333 331 331 331 331 331 331 332 334 335 335 335 335 335 334 334 334 334 333 333 332 332 332 332 332 332 332 332 332 331 331 332 332 331 332 332 331 330 331 331 330 331 331 331 330 329 330 331 329 328 326 326 325 322 321 319 315 316 320 320 314 312 319 322 315 308
320 321 322 322 322 323 324 325 325 326 327 328 329 330 331 331 331 332 332 333 331 330 330 331 331 331 331 334 335 334 334 334 333 334 333 333 333 333 333 332 332 331 331 331 332 332 331 331 331 331 331 331 331 332 331 329 330 331 332 331 330 330 330 329 329 330 330 329 327 325 325 324 322 321 320 317 316 318 318 316 317 319 319 319 317
319 320 321 321 321 322 323 323 324 324 324 325 326 328 330 330 331 331 331 331 331 330 329 330 331 331 331 332 333 334 334 332 331 332 333 333 332 332 332 332 332 331 330 331 332 331 330 331 332 332 331 331 331 330 329 331 332 332 331 331 330 330 329 329 329 330 330 328 326 325 323 323 322 322 321 320 318 317 317 316 315 314 312 315 320
319 319 320 320 321 321 321 322 322 323 323 324 324 326 327 329 330 331 331 331 331 330 330 329 330 330 331 332 331 331 332 332 331 332 333 333 332 332 332 331 332 332 332 333 332 330 330 332 333 331 330 331 331 329 329 331 332 331 331 330 330 330 329 329 329 330 329 326 324 323 323 323 322 321 320 320 318 316 316 314 312 312 311 311 315
319 319 319 320 320 320 320 321 321 322 323 323 324 325 326 327 329 330 330 330 330 331 331 330 329 330 331 331 331 331 332 332 331 331 332 333 333 333 332 331 332 332 332 332 331 330 331 333 333 331 331 332 331 329 329 331 331 331 330 329 329 330 330 329 328 328 326 324 324 323 322 321 320 319 318 317 316 315 315 313 312 312 312 312 313
318 319 319 319 320 319 319 320 320 321 322 323 324 325 326 326 327 328 329 329 330 330 330 330 330 331 331 331 330 331 332 332 331 331 332 333 333 333 332 331 332 332 331 330 329 330 331 332 333 332 331 332 332 331 331 332 332 330 329 329 328 330 330 329 327 326 325 323 323 323 321 320 319 317 316 316 315 315 314 314 314 314 314 314 314
318 319 319 319 319 319 319 319 320 321 322 322 323 324 325 326 327 328 329 329 329 329 329 329 329 331 332 331 330 331 331 331 331 331 332 333 333 333 332 331 331 331 331 330 330 331 332 332 333 332 330 330 331 332 332 332 330 328 328 328 327 328 329 328 326 326 326 325 324 323 322 320 319 317 317 317 316 315 315 315 315 315 315 315 315
318 318 318 318 318 318 318 318 320 321 321 322 321 322 322 323 325 326 328 329 329 329 329 329 329 330 332 331 329 330 330 330 331 331 331 332 333 333 332 331 330 331 331 330 331 332 332 332 332 331 331 330 330 331 331 330 329 328 328 328 327 327 328 327 326 326 326 325 325 323 321 320 318 318 318 318 317 316 316 316 316 316 316 316 316
317 317 317 317 316 317 317 317 319 320 320 320 320 320 319 319 321 322 325 327 328 328 329 329 329 329 331 331 329 330 330 330 330 331 332 332 333 333 332 332 331 331 331 330 331 332 332 331 331 330 330 330 329 330 329 329 330 329 329 329 329 328 327 326 326 325 324 325 325 322 320 320 319 319 318 317 317 317 317 317 317 317 317 317 317
317 317 317 316 316 316 316 317 318 319 319 319 318 317 317 317 317 317 319 323 326 327 328 328 328 328 329 330 330 330 331 331 330 331 332 332 333 333 332 331 332 331 331 330 329 330 330 330 329 329 330 330 329 330 330 330 330 328 327 328 328 328 327 326 326 326 324 325 325 322 320 320 320 319 318 318 318 318 318 318 318 318 318 318 319
316 316 316 316 315 315 314 316 317 318 318 318 317 316 315 315 314 313 315 318 322 325 327 327 328 327 327 329 330 329 330 331 330 331 332 331 331 332 332 331 331 330 330 328 327 327 329 329 329 328 329 329 329 330 330 330 330 329 328 327 328 329 328 326 326 326 324 323 323 322 321 320 320 319 319 319 319 319 319 318 318 319 320 320 321
316 316 315 315 315 314 313 315 316 317 317 316 316 315 314 313 312 311 312 314 317 321 323 325 327 327 327 329 329 328 328 330 330 330 331 330 329 330 331 331 330 329 328 328 327 327 328 328 329 329 329 330 329 330 330 328 327 327 327 327 327 327 326 325 324 324 322 321 321 321 321 322 322 322 321 320 320 320 321 321 320 321 321 321 321
315 315 314 314 315 314 313 314 315 316 316 315 314 314 313 312 311 310 310 312 314 316 318 321 323 325 327 328 328 327 327 328 328 329 330 329 327 328 329 329 329 328 328 327 327 327 328 328 328 328 329 329 328 328 328 326 323 322 323 324 324 324 324 322 322 321 321 322 323 323 323 324 325 325 325 324 323 323 322 322 321 322 322 321 320
314 314 313 313 314 313 313 313 313 315 315 314 313 313 312 311 310 309 309 309 310 312 314 316 318 320 322 324 325 326 326 326 326 328 329 328 327 327 327 326 326 326 327 327 326 327 327 326 326 327 328 327 326 327 327 325 323 322 322 322 322 323 324 325 325 326 325 324 324 324 324 324 325 325 325 326 326 324 322 322 322 322 322 320 318
313 313 313 313 313 313 313 312 312 313 314 313 313 312 311 310 309 308 308 308 307 309 311 312 313 315 317 319 320 321 322 323 325 327 327 327 327 327 326 325 325 326 327 326 324 326 327 326 326 328 327 326 325 325 324 324 323 322 320 319 320 322 323 325 327 328 327 325 325 325 324 324 323 323 323 324 324 323 322 322 322 321 320 319 317
312 312 312 312 312 312 312 312 312 312 313 313 312 311 310 309 308 307 307 306 305 305 307 308 310 312 313 314 315 316 317 320 323 326 326 326 326 326 326 326 325 325 326 324 323 325 326 326 326 326 324 323 323 323 323 323 322 320 318 317 317 318 318 320 322 323 322 322 323 322 322 321 320 320 321 321 320 321 321 321 320 320 320 319 317
311 311 311 311 311 311 311 311 311 312 312 311 311 310 309 308 308 307 306 305 304 304 304 305 307 308 309 310 312 313 315 318 321 324 324 324 325 325 324 324 323 322 323 323 322 324 324 324 324 323 322 322 322 323 323 322 320 319 317 316 315 314 313 315 316 316 316 317 317 317 317 316 316 316 316 316 317 318 318 318 317 317 317 318 317
310 310 310 310 310 310 310 310 311 311 311 311 309 308 308 308 307 306 305 305 304 304 303 303 303 305 306 308 310 313 314 316 319 321 322 322 323 322 321 321 321 319 319 320 320 321 322 322 321 321 321 321 322 322 322 321 320 319 318 317 315 313 312 313 314 315 315 315 314 313 313 312 312 312 312 312 313 314 314 314 314 314 315 315 315
309 310 310 309 310 309 308 308 309 310 311 311 309 307 307 307 307 306 306 305 305 304 304 303 302 302 304 306 308 310 313 315 317 320 320 320 320 321 320 319 318 317 317 316 317 317 318 318 318 318 319 320 319 320 320 320 319 319 318 318 316 315 315 315 316 315 315 314 313 312 311 310 309 309 308 308 309 309 310 310 310 311 311 312 311
308 309 309 309 309 308 306 305 306 308 309 310 309 307 307 307 307 306 305 305 305 305 304 303 303 302 302 304 306 307 310 312 314 317 318 317 317 318 318 316 315 315 315 314 314 314 314 315 315 316 317 318 319 320 320 320 320 319 318 318 316 315 315 314 314 314 313 312 311 310 309 309 308 308 307 307 306 307 307 307 308 309 309 309 309
307 308 308 308 308 307 305 304 304 305 306 308 309 307 306 306 306 306 305 304 304 305 304 303 303 303 303 304 304 305 308 310 311 313 315 315 314 315 315 314 314 315 314 313 313 312 312 312 313 315 317 317 318 318 319 319 318 317 316 316 315 314 313 312 312 312 311 310 309 309 308 307 307 307 306 306 305 305 305 305 305 306 306 307 307
306 307 308 307 307 306 305 303 303 303 304 305 306 306 306 305 305 305 304 303 302 303 303 303 303 302 302 303 302 303 306 308 309 310 312 312 312 313 313 313 314 314 314 312 312 311 311 311 311 313 314 314 314 314 315 315 314 313 313 312 311 311 310 310 310 309 309 309 308 307 307 306 306 306 306 305 305 305 304 304 303 303 303 303 304
305 306 307 306 306 306 305 304 303 303 303 303 303 304 305 305 305 304 303 302 301 301 301 302 302 302 302 302 301 302 303 304 305 307 309 311 312 313 313 313 314 315 313 311 310 309 309 309 309 310 311 311 310 310 310 310 310 310 310 309 309 309 309 309 308 308 308 307 307 306 306 305 305 305 304 304 303 303 303 303 302 302 302 301 301
304 305 305 305 305 305 304 304 303 303 303 303 302 302 303 304 304 304 303 301 300 300 300 300 300 301 301 301 300 301 301 302 302 304 306 307 309 310 310 311 312 313 310 308 307 307 307 307 308 308 308 308 308 308 307 307 307 308 308 308 307 307 307 307 307 307 307 306 306 305 304 304 304 303 303 302 302 302 302 302 301 301 300 300 299
304 304 304 304 304 303 303 302 301 301 301 301 301 301 301 301 301 302 303 302 301 299 299 299 299 300 300 300 300 300 302 302 302 302 302 303 304 305 306 307 307 308 306 305 305 306 306 306 306 306 306 306 306 306 305 305 305 305 305 305 305 305 305 306 305 305 305 305 304 304 303 303 303 303 303 303 303 303 303 302 302 302 301 300 300
304 304 304 304 303 302 301 300 299 298 298 299 299 299 300 300 299 298 300 301 301 299 298 298 298 298 298 299 299 300 301 302 302 302 302 302 302 303 304 304 304 304 304 303 303 304 304 304 304 303 303 303 302 302 302 301 301 302 302 302 303 304 304 304 304 304 303 303 303 302 302 302 302 302 303 303 302 302 302 302 302 302 301 301 300
303 303 303 303 303 303 302 301 300 298 298 298 298 298 298 299 298 297 297 298 299 300 298 297 296 297 297 297 298 299 300 301 301 302 302 302 302 303 303 302 302 302 302 302 302 302 302 302 301 301 301 300 299 299 299 299 300 300 301 301 302 302 302 302 302 302 302 302 302 302 302 302 302 302 302 301 301 301 302 302 301 301 301 301 300
302 302 302 303 303 303 302 302 301 300 299 298 298 297 297 298 298 297 297 297 298 298 298 297 296 296 296 296 297 297 298 299 299 300 302 303 303 303 302 301 301 301 301 301 301 301 300 300 299 299 299 298 298 298 299 299 299 300 300 300 301 301 301 301 301 302 302 302 302 302 302 302 301 301 301 301 301 300 301 301 300 300 300 300 300
302 302 301 302 302 302 302 302 302 302 301 300 299 298 297 297 298 297 297 297 297 297 297 297 296 296 296 296 296 297 297 298 299 300 301 301 302 302 302 301 301 301 301 301 301 300 299 298 298 298 298 297 298 298 298 298 298 299 299 299 299 300 300 300 300 300 300 301 301 301 301 300 300 300 300 300 299 299 299 299 299 299 299 299 299
302 301 301 301 301 301 302 302 302 302 302 302 301 300 299 298 297 297 297 297 297 297 297 297 297 297 297 297 297 297 297 298 298 300 300 300 301 301 301 301 301 300 300 301 300 299 298 298 297 297 297 297 297 297 297 297 297 297 297 298 298 298 298 297 298 298 298 299 299 299 299 299 299 299 298 298 298 298 298 298 299 299 299 299 299
301 301 301 301 301 301 301 301 301 302 302 302 302 301 301 299 298 297 297 297 297 297 296 296 296 296 296 297 297 297 298 298 298 299 300 300 301 301 300 300 300 300 300 300 299 298 298 297 297 297 297 297 297 297 297 297 297 297 297 297 297 297 297 297 297 297 297 297 297 298 298 298 297 297 297 297 298 298 298 298 298 297 297 296 297
300 300 301 301 301 301 301 301 301 301 301 301 301 301 301 301 300 298 298 298 298 297 297 296 296 296 295 295 295 295 297 298 298 299 299 299 300 300 300 300 300 300 300 300 299 298 297 297 297 297 297 297 297 297 297 297 297 297 297 297 297 297 297 297 296 296 296 296 296 296 296 296 296 296 296 297 297 297 297 297 297 296 296 295 296
300 300 300 301 301 301 301 301 301 301 301 301 301 301 300 301 301 300 300 300 299 299 297 296 296 296 296 295 294 293 294 295 297 298 299 299 299 299 300 300 299 299 299 299 298 298 298 297 297 298 297 297 297 297 297 297 297 297 297 297 297 297 297 296 296 296 296 296 296 296 296 296 296 296 296 296 296 296 296 296 296 296 295 295 295
300 300 300 300 300 300 300 300 300 301 300 300 300 300 300 300 300 300 300 300 300 300 299 298 297 297 296 296 295 294 294 294 295 296 297 299 299 299 299 299 299 299 299 299 299 299 298 298 298 298 297 297 297 297 297 297 297 297 297 297 297 296 296 296 296 296 296 296 296 295 295 295 295 295 295 295 295 295 295 295 295 295 295 295 295
300 300 300 300 300 300 300 300 300 300 300 300 300 300 300 300 300 300 300 300 300 300 300 299 299 298 298 297 296 296 295 295 295 295 296 297 298 299 299 299 299 299 299 299 299 299 299 298 298 298 298 297 297 297 297 297 297 297 297 296 296 296 296 296 296 296 295 295 295 294 294 294 294 294 294 294 294 294 294 294 293 294 294 294 294
299 300 300 300 300 300 300 300 300 300 300 300 300 300 299 299 299 299 299 299 299 299 299 300 299 299 299 298 297 297 296 296 296 296 297 297 298 298 299 299 300 300 300 299 299 299 299 299 298 298 298 297 297 297 297 296 296 296 296 296 295 295 295 295 295 295 295 294 294 294 294 293 294 294 294 294 294 294 293 293 292 292 292 293 293
298 298 298 299 299 300 300 300 299 299 300 299 299 299 299 299 299 299 299 299 299 299 299 299 299 298 298 298 298 298 297 296 296 296 296 297 298 298 298 299 299 299 299 299 299 299 299 299 298 298 297 297 297 296 296 296 296 295 295 295 295 294 294 294 294 294 294 294 293 293 293 293 294 294 294 294 294 294 293 293 293 293 293 293 293
298 298 298 298 298 298 299 299 299 299 299 299 299 299 299 299 299 299 299 299 298 299 299 299 298 297 297 297 298 298 298 297 296 296 296 296 297 297 298 298 298 298 298 298 298 298 298 298 298 297 297 297 297 296 296 295 295 295 295 295 294 294 294 294 294 294 294 294 294 294 294 294 294 293 293 293 293 293 293 293 293 294 293 293 292
298 298 298 298 298 298 298 298 298 298 298 299 299 299 299 299 298 298 298 298 298 298 299 299 298 297 296 296 297 297 298 297 297 296 296 295 296 296 297 297 297 297 297 297 297 297 297 297 297 297 297 296 296 296 295 295 295 295 295 294 294 294 294 294 294 294 294 294 294 294 294 294 294 294 293 293 293 293 293 292 292 292 292 292 292
299 298 298 298 298 298 298 298 298 298 298 298 298 298 298 298 298 298 298 298 298 298 298 298 297 296 296 296 296 297 298 297 296 296 296 296 295 296 296 296 297 297 297 297 297 296 297 297 296 296 296 296 296 296 295 295 295 294 295 294 294 294 294 294 294 294 294 294 294 294 294 294 294 293 293 292 292 293 293 293 293 293 292 292 292
299 299 298 298 298 298 298 298 298 298 298 298 298 298 298 298 298 298 297 297 298 298 298 298 298 297 296 296 296 297 297 297 296 296 296 296 296 295 295 296 296 296 296 296 296 296 296 296 296 296 295 295 295 295 295 294 294 294 294 294 294 294 294 294 294 293 293 293 293 293 293 293 293 292 292 292 293 293 293 293 293 293 293 292 291
299 299 299 299 298 298 298 298 297 298 298 298 298 298 298 298 298 298 297 297 297 298 298 298 298 297 297 297 297 297 297 297 296 296 296 296 296 295 295 295 295 295 295 295 295 295 295 295 295 295 294 294 294 294 294 294 294 294 294 294 294 294 294 294 293 293 293 293 293 292 292 292 293 293 292 292 293 293 292 291 292 292 292 292 292
299 299 299 299 298 298 298 298 298 298 298 298 298 298 298 298 298 298 298 297 297 297 298 298 297 298 297 297 297 297 297 297 296 296 296 296 296 295 295 295 295 295 295 295 295 295 295 294 294 294 294 294 294 294 294 294 294 293 293 293 293 292 293 293 293 293 293 293 292 292 292 292 292 293 292 292 291 292 292 291 291 291 291 291 291
299 299 299 299 298 298 298 298 298 298 298 298 298 298 298 298 298 298 297 297 297 297 298 297 297 297 297 297 297 297 297 297 297 296 296 296 296 295 295 295 295 295 294 294 294 294 294 294 294 294 294 294 294 293 293 293 293 292 292 292 292 292 291 292 292 292 293 293 292 292 292 292 292 293 293 292 291 291 291 291 290 289 289 289 290
299 298 299 299 299 298 298 298 298 298 298 298 298 298 298 298 298 298 297 297 297 297 298 298 297 297 297 297 297 297 297 297 297 297 297 297 296 296 295 295 295 295 294 294 294 293 293 293 293 293 292 292 292 292 292 292 291 292 292 292 292 292 291 291 291 291 291 292 292 293 293 292 292 292 292 291 291 290 290 289 288 288 288 288 288
299 299 298 299 299 298 298 298 298 298 298 298 298 298 298 298 298 298 298 297 297 298 298 298 298 298 297 297 297 297 297 297 297 297 297 297 297 296 296 295 295 294 294 294 294 293 293 293 293 292 292 291 291 291 291 291 291 291 291 291 291 291 290 290 290 290 291 291 291 291 292 292 292 291 290 289 289 289 288 288 288 288 287 287 287
299 299 298 298 298 298 298 298 298 298 298 298 298 298 298 298 298 298 298 298 298 298 297 297 297 297 297 297 297 297 297 297 297 297 297 297 297 297 296 296 295 294 294 294 294 293 293 293 293 292 292 291 291 291 291 291 291 291 291 290 290 290 289 289 290 290 290 290 290 290 291 291 291 290 290 288 288 288 287 287 288 288 287 287 287
299 299 298 298 298 298 298 298 298 298 298 298 298 297 297 297 297 297 297 297 297 297 297 297 297 297 297 297 297 297 297 297 297 297 297 297 297 297 297 296 295 295 294 294 294 293 293 293 293 292 292 292 291 291 291 291 291 290 290 290 289 289 288 288 289 289 289 289 289 289 290 290 289 289 288 288 287 286 286 286 286 287 287 287 287
298 298 298 298 298 298 298 298 298 298 298 297 297 297 297 297 297 297 297 297 297 297 297 297 297 297 297 297 297 297 297 297 297 297 297 297 297 297 297 296 296 295 295 294 294 293 293 293 292 292 292 292 291 291 291 291 290 290 290 289 288 288 288 287 287 287 287 288 288 288 288 289 289 288 288 288 287 286 286 286 286 286 287 287 287
298 298 298 298 298 298 298 298 298 298 297 297 297 297 297 297 296 296 296 296 297 296 296 296 297 297 296 296 296 296 296 296 297 297 297 297 297 296 297 297 296 296 295 294 294 294 293 293 292 292 291 291 291 291 291 291 290 290 289 288 288 288 288 287 286 285 285 285 286 286 286 287 288 287 287 287 287 287 286 286 285 286 287 287 287
Wind_Speed
14 14 14 14 14 15 15 15 15 16 16 17 18 19 19 19 17 15 15 17 21 21 21 22 24 25 23 20 18 17 19 20 21 20 19 18 18 18 18 19 18 18 19 18 18 21 20 20 21 20 19 22 24 24 21 19 18 17 14 12 12 9 9 10 9 8 8 11 14 14 16 16 14 14 14 15 15 14 13 11 10 12 12 10 10
14 15 15 15 15 16 16 15 15 16 17 17 18 18 19 19 17 15 15 17 20 23 22 22 23 26 25 20 17 17 18 20 21 21 21 20 19 18 20 21 18 18 20 20 23 24 22 20 21 21 22 24 24 21 20 21 20 17 13 12 12 10 10 13 13 12 11 12 14 15 16 16 15 15 16 16 15 14 14 12 11 13 13 10 9
15 15 15 15 16 15 15 15 15 16 17 17 18 18 19 19 17 15 16 16 17 20 21 21 23 25 24 21 19 18 18 21 22 22 22 21 20 19 22 22 20 21 22 23 25 25 24 24 23 23 26 25 22 20 20 20 17 15 13 12 13 10 9 13 15 16 16 15 16 17 17 15 15 16 16 15 15 14 14 13 12 12 12 12 10
15 15 15 15 15 15 15 15 15 16 16 17 18 18 19 20 18 16 17 17 17 18 19 21 21 21 23 24 19 15 16 21 24 24 24 22 20 19 22 22 22 23 22 22 23 24 25 24 22 25 28 23 20 21 21 18 14 13 13 13 13 12 11 12 13 15 18 16 15 17 16 15 15 15 15 14 14 14 13 12 12 11 11 12 12
15 15 15 15 15 15 16 16 16 17 17 18 18 19 19 19 18 17 18 18 17 16 17 19 21 21 22 22 20 18 18 19 21 22 22 21 19 19 21 22 22 22 20 20 22 23 23 21 20 25 27 21 18 20 20 18 15 13 13 13 12 12 14 14 11 13 17 17 16 17 15 14 15 14 14 14 13 13 12 11 11 12 11 10 11
14 14 15 15 15 16 17 17 17 17 18 18 19 20 20 19 19 18 18 18 17 15 15 18 21 20 20 21 20 18 16 18 20 19 18 19 18 17 19 20 20 20 19 20 23 22 20 19 18 21 22 18 17 18 17 16 16 15 12 11 11 12 13 14 14 15 18 17 15 16 16 14 13 13 13 14 14 13 13 12 11 12 12 10 10
14 13 14 15 16 17 18 17 17 18 18 19 19 20 21 19 19 19 18 18 17 17 17 19 20 19 21 22 19 16 15 18 20 18 16 15 15 17 19 20 19 19 18 20 22 21 19 18 16 16 17 15 14 14 13 12 11 8 6 10 15 16 13 14 17 16 17 18 15 14 15 14 13 13 13 14 14 13 12 12 11 12 11 10 10
15 14 15 16 16 17 18 17 17 18 19 18 18 20 21 21 20 19 18 17 17 18 18 18 19 18 20 20 18 16 18 19 18 18 16 15 16 17 17 18 18 18 17 17 18 17 16 15 14 13 13 14 14 13 12 11 10 6 4 11 19 18 13 15 19 15 13 15 14 14 14 14 13 13 14 14 14 14 15 14 12 12 11 10 9
15 16 16 17 17 17 17 17 17 18 19 19 19 20 21 22 21 20 20 19 17 16 16 18 20 17 14 14 15 15 16 17 18 18 17 16 16 15 15 16 17 16 15 14 14 13 12 13 15 14 13 15 17 16 14 14 12 10 10 13 18 20 16 14 16 19 15 10 10 13 14 14 14 13 13 14 13 13 15 13 12 12 11 10 8
15 16 16 17 17 17 16 17 18 18 18 19 20 21 21 21 21 21 21 20 19 17 15 17 19 17 12 11 13 14 12 14 16 16 15 16 15 14 14 15 16 16 16 15 13 11 11 13 15 15 14 15 16 16 15 14 12 12 15 16 17 21 19 13 14 23 20 10 7 13 15 13 14 13 13 13 11 9 9 9 9 10 10 10 8
15 16 17 18 18 18 17 17 18 18 18 19 20 21 22 21 21 22 21 21 20 18 17 17 17 16 14 11 13 14 13 13 14 14 17 17 15 14 14 14 15 17 17 16 16 14 13 13 13 14 16 16 15 15 15 14 12 12 15 16 18 19 16 13 12 17 19 13 7 10 14 14 14 13 13 13 11 9 9 8 8 9 9 8 7
15 16 17 18 19 18 18 18 18 18 19 20 20 21 22 21 21 23 23 22 21 18 16 17 16 15 14 11 13 14 14 13 13 14 18 18 15 13 14 13 15 18 17 17 18 16 16 14 11 13 15 15 15 15 13 12 12 14 16 16 17 17 14 13 13 13 18 17 9 7 11 14 14 14 13 12 11 10 11 10 10 10 7 7 8
15 16 17 19 20 19 18 18 19 19 19 20 20 21 22 21 22 23 23 23 21 19 17 15 14 13 11 9 11 13 13 14 16 16 16 16 14 12 12 11 13 16 16 17 18 16 17 16 12 12 15 14 13 14 14 13 14 17 19 17 15 14 13 15 15 14 16 17 14 12 11 11 12 12 10 11 11 11 10 8 8 8 7 11 11
16 17 17 19 20 20 19 18 19 19 20 20 20 21 22 22 21 21 22 23 22 20 18 16 14 11 9 8 9 10 11 13 17 18 16 15 13 11 11 11 13 15 15 16 16 16 16 18 15 13 16 14 13 15 17 16 15 14 15 16 15 13 13 14 13 12 12 12 12 12 11 10 11 12 9 7 8 9 8 5 3 5 9 12 10
16 17 17 19 20 20 20 19 18 19 20 20 21 21 22 22 21 20 21 21 20 18 16 14 13 12 9 6 5 7 10 13 16 18 17 15 14 12 10 10 13 14 14 13 13 12 10 14 15 14 15 15 15 16 17 16 14 13 15 17 17 16 16 16 15 13 11 11 13 15 16 15 14 13 11 7 5 6 8 7 6 8 11 10 9
17 17 18 18 19 20 20 19 19 19 20 20 21 21 22 21 20 19 19 19 18 18 16 14 12 10 8 5 1 3 8 10 12 15 15 14 13 11 10 10 11 10 8 8 7 5 5 9 11 12 14 14 14 15 15 17 16 16 18 19 19 19 18 16 16 16 14 15 18 18 18 18 16 15 14 11 8 7 7 9 8 8 9 9 8
17 18 18 18 18 19 19 19 19 19 19 20 20 20 20 20 19 19 19 19 19 18 16 15 13 11 9 7 5 2 1 3 8 11 12 11 10 9 8 8 7 8 10 10 8 4 3 4 7 11 13 15 16 16 18 20 20 19 21 22 22 22 20 18 16 16 15 17 18 18 17 15 14 13 12 11 10 8 4 6 6 4 5 7 7
18 18 18 17 18 17 17 18 19 19 19 19 19 19 19 19 19 18 17 17 18 18 16 16 17 17 15 13 10 8 8 5 4 7 6 6 7 5 5 9 12 13 14 13 10 9 9 9 11 13 15 18 21 22 21 21 20 21 23 25 24 22 22 22 20 18 17 17 16 15 14 13 12 12 10 9 10 9 8 6 5 4 7 9 8
18 18 18 17 17 17 16 16 17 19 19 18 18 17 18 18 18 17 15 16 17 18 18 19 21 23 22 19 16 15 15 13 10 9 7 5 6 6 6 11 14 14 15 17 16 15 15 14 15 16 18 20 22 22 21 19 20 21 21 23 24 21 20 19 18 17 17 16 16 15 15 14 13 12 11 9 8 10 12 10 6 3 6 10 9
17 17 17 17 17 17 16 15 15 17 19 19 18 17 16 17 18 17 15 15 16 18 18 19 22 24 25 25 24 22 21 18 14 11 8 6 7 7 8 12 14 15 17 18 20 20 18 18 18 18 19 19 18 18 18 18 19 19 17 18 20 19 16 15 15 15 15 16 16 16 15 15 14 13 13 12 10 10 11 12 11 8 6 7 8
17 17 18 18 17 17 18 16 13 14 17 17 18 18 17 18 19 19 17 17 17 18 17 16 18 22 27 31 31 29 26 22 18 13 8 5 5 6 8 12 15 18 20 21 22 23 21 20 18 17 17 17 16 16 17 16 17 19 19 19 19 18 17 17 16 16 16 15 15 14 13 13 13 13 13 14 14 12 11 12 13 13 11 8 7
16 17 17 18 18 18 18 17 15 15 16 16 16 18 18 19 19 20 22 22 21 19 19 18 18 21 28 33 33 32 29 25 22 19 14 10 10 11 14 16 19 21 24 24 24 24 21 19 17 15 15 17 17 18 19 18 19 21 22 21 20 19 18 16 14 13 13 13 12 12 12 11 12 12 12 13 13 13 13 12 12 13 15 15 12
15 16 17 18 19 19 19 20 21 21 20 18 17 18 19 19 19 20 21 23 25 24 21 21 23 26 29 30 31 32 32 28 25 22 18 15 15 16 18 20 21 23 25 26 26 24 21 19 17 16 16 17 19 20 21 20 22 23 22 21 19 18 16 14 14 14 13 13 13 12 11 10 11 11 12 12 12 12 13 13 12 12 13 15 15
14 15 16 18 18 18 19 20 21 21 22 22 21 20 20 19 19 20 20 21 25 27 25 24 26 28 28 29 29 30 31 30 28 25 21 18 17 17 18 20 21 23 25 27 25 23 22 21 19 18 18 19 20 22 23 24 24 23 22 21 19 17 16 17 17 16 15 13 12 12 11 11 11 12 12 13 12 12 12 12 13 13 12 13 13
13 14 16 17 17 18 18 19 19 19 20 22 22 21 20 20 18 19 20 21 22 25 26 26 26 27 27 28 29 29 29 28 28 27 24 22 21 19 19 21 22 24 27 28 26 25 24 23 22 22 22 21 22 24 25 24 23 22 21 20 19 18 18 17 16 15 14 12 12 12 12 12 13 12 12 12 11 11 11 12 12 13 13 13 13
13 13 13 15 16 18 18 19 21 22 21 20 20 20 20 20 20 19 18 19 20 21 23 24 24 25 27 27 28 29 30 28 26 25 23 23 23 22 23 25 26 27 29 30 28 27 26 25 25 25 25 25 25 25 24 21 19 19 18 17 17 17 16 15 15 14 14 13 12 12 11 11 10 9 8 9 9 9 9 9 10 10 11 11 11
14 13 13 12 13 15 17 18 22 26 27 25 23 21 19 20 23 24 21 18 17 19 21 24 24 24 25 26 27 29 30 28 26 24 21 21 22 24 25 26 28 29 30 29 28 27 26 26 26 25 24 24 24 23 20 17 16 16 15 14 14 15 14 14 15 14 13 13 13 12 12 10 9 8 7 7 8 7 6 7 7 8 8 8 9
14 14 13 13 12 12 14 14 16 21 27 31 30 27 22 19 22 26 24 20 17 16 17 21 23 23 23 24 26 28 29 29 27 23 20 20 22 24 26 27 28 28 28 27 27 26 26 25 24 23 23 23 22 21 20 18 17 17 16 15 15 15 15 15 15 14 13 13 13 12 10 9 8 8 7 8 7 6 5 6 6 6 6 5 6
14 14 14 14 13 13 12 13 12 13 18 25 31 32 28 22 20 22 24 23 20 18 17 18 20 22 24 24 24 25 27 26 24 20 18 18 20 23 24 25 25 25 24 24 24 23 23 23 22 22 22 22 21 20 19 18 18 17 16 15 14 13 14 14 14 13 12 11 10 9 9 8 8 8 7 8 7 6 6 6 6 5 5 4 4
14 15 15 14 14 13 13 13 13 12 12 16 21 27 31 30 26 25 24 24 22 22 22 20 20 22 24 24 23 23 23 21 20 19 18 17 18 20 21 21 21 21 20 18 18 19 20 21 21 20 20 19 19 18 17 17 17 16 16 15 14 14 14 14 13 12 11 10 10 9 8 8 8 7 8 8 7 7 7 6 6 5 4 4 5
13 14 15 15 14 14 14 14 14 14 13 13 14 18 24 29 30 29 28 27 28 28 28 26 24 24 24 23 22 21 20 18 17 17 16 16 15 16 16 15 16 17 15 14 15 18 19 19 19 18 17 17 17 16 16 16 15 15 16 16 15 15 15 14 13 13 13 11 10 9 8 8 9 9 8 8 7 7 7 6 5 5 4 4 4
14 13 13 14 14 14 15 15 15 15 15 15 14 14 16 20 24 27 28 29 30 30 29 29 28 27 25 23 21 20 19 18 17 16 15 13 12 13 13 13 12 12 11 12 15 17 17 17 17 16 16 15 15 14 13 13 13 12 12 13 13 13 13 12 11 11 11 11 9 9 9 9 9 9 8 7 7 7 6 6 6 6 5 5 4
15 14 13 13 13 14 15 15 15 15 15 15 15 14 14 13 15 18 20 22 24 26 27 27 27 27 27 25 23 20 18 16 15 15 14 13 11 10 10 11 10 10 10 12 14 15 14 14 14 14 13 13 12 12 12 11 11 10 10 10 11 11 11 11 11 10 10 10 9 9 9 9 9 8 8 7 7 6 6 5 5 5 5 5 4
15 15 15 14 13 14 15 15 15 15 15 15 14 14 15 14 12 11 12 13 15 19 22 24 25 26 26 26 26 23 19 14 12 11 11 11 10 10 9 9 9 9 9 10 11 11 10 10 10 11 11 11 10 10 11 10 10 10 10 10 10 9 9 9 9 9 9 9 8 9 8 8 7 7 6 6 6 6 6 5 5 5 4 3 3
14 16 16 14 14 14 15 14 15 15 15 15 15 14 14 14 14 13 12 11 12 13 15 16 20 23 25 25 25 25 23 19 14 11 9 9 9 10 9 9 9 8 8 9 8 8 8 7 7 8 8 8 8 9 9 9 9 9 9 9 8 8 8 8 8 8 7 7 8 8 7 6 6 6 7 7 7 6 6 5 5 4 4 3 4
12 14 14 14 14 15 14 14 14 14 14 14 14 14 14 14 13 13 13 13 13 13 12 10 11 15 19 20 21 23 24 23 20 16 13 11 10 9 7 5 6 6 6 7 7 7 7 7 6 6 6 6 7 8 7 7 7 7 7 7 7 7 8 8 7 7 8 8 8 7 7 7 6 6 7 8 8 7 7 6 5 4 3 3 4
14 14 15 14 13 13 14 14 13 12 12 13 13 13 13 13 13 13 13 13 13 13 13 11 10 11 13 14 14 17 19 20 20 18 15 13 11 9 6 4 5 5 5 6 6 6 6 6 5 5 6 6 6 7 6 6 6 6 6 7 7 8 8 8 7 7 7 8 7 6 6 7 6 6 6 7 6 6 6 6 6 5 4 3 2
15 14 15 16 15 13 12 12 12 11 12 13 13 13 13 12 12 12 12 12 12 12 13 13 13 13 14 13 11 11 14 16 16 16 14 13 12 10 9 8 7 7 6 6 5 4 5 5 5 5 6 6 5 6 6 5 5 5 5 6 7 7 8 8 7 7 7 7 6 6 6 6 5 5 6 6 5 5 4 4 4 5 4 3 3
14 12 11 12 13 14 13 12 12 11 11 11 12 11 12 12 11 12 12 11 12 12 12 12 13 14 14 13 13 12 12 13 14 14 14 14 13 11 10 10 9 8 7 6 6 5 5 5 5 5 4 4 4 4 4 5 5 4 4 5 6 6 6 6 5 5 5 5 5 5 5 5 5 5 5 5 5 4 3 3 2 2 3 4 4
12 12 10 9 11 12 13 12 12 12 11 11 12 11 11 11 12 12 12 12 12 13 12 11 13 13 12 12 15 16 14 12 13 12 12 13 12 11 10 9 9 8 7 6 6 5 5 4 5 4 3 3 3 3 3 4 4 4 4 5 6 5 5 4 4 4 4 4 4 5 5 5 5 5 5 5 4 3 3 3 2 2 3 4 3
9 10 10 10 10 11 11 12 13 12 12 11 12 11 11 11 11 12 12 13 13 13 11 10 12 12 11 12 14 14 13 12 13 12 11 12 11 11 10 9 8 7 6 6 5 4 4 4 4 3 3 3 2 3 3 3 3 4 4 4 4 4 4 3 3 3 3 3 3 4 4 3 3 4 5 4 3 2 2 2 2 2 2 2 2
8 8 8 9 9 10 11 11 11 12 12 12 11 11 11 11 11 11 12 13 12 11 10 9 10 10 10 11 13 12 11 12 12 12 11 11 11 10 10 9 8 7 6 6 5 4 4 4 3 3 3 3 2 3 3 3 3 3 3 3 3 3 3 3 3 3 3 2 3 3 3 3 4 4 4 1 0 1 1 1 1 1 1 2 2
6 7 7 8 8 8 9 9 9 10 11 9 9 11 11 11 11 11 11 12 11 10 9 9 9 8 8 8 9 11 11 12 12 12 11 11 10 9 9 9 8 7 6 5 5 4 3 3 3 2 3 3 2 2 2 2 2 2 2 2 2 2 1 3 3 3 2 2 3 3 2 2 2 2 2 1 1 2 2 1 1 1 1 0 0
5 5 5 6 6 7 8 8 8 9 8 5 5 8 10 10 10 11 11 11 11 10 9 9 8 8 8 7 8 10 11 11 11 11 11 10 10 9 8 8 7 6 5 5 4 3 3 2 2 3 2 2 1 1 3 3 3 1 1 1 2 1 1 2 3 2 2 2 3 3 2 1 1 1 2 1 1 1 0 0 1 2 2 2 2
4 5 4 5 5 6 6 6 7 8 7 5 5 7 8 8 9 9 10 11 10 9 9 9 8 8 9 8 8 8 9 9 9 9 10 10 10 9 8 7 5 4 4 4 3 3 2 2 2 3 2 1 1 1 2 2 2 1 2 2 1 2 2 2 2 2 2 2 2 2 2 2 1 0 1 1 0 1 0 1 2 2 2 3 2
4 4 3 4 5 5 6 6 6 6 7 7 7 8 8 8 8 8 8 9 9 8 8 9 9 9 9 8 8 7 7 7 7 8 8 8 8 8 7 6 4 3 3 3 2 2 1 2 2 2 1 1 1 1 0 0 1 0 1 1 1 1 2 2 2 1 1 2 1 0 0 2 1 2 1 1 1 2 2 2 2 2 2 3 2
3 3 3 3 3 3 4 5 4 4 5 7 7 7 7 7 8 8 7 6 5 6 8 8 8 9 9 8 8 7 7 7 7 7 7 6 6 6 5 4 3 2 2 1 1 0 0 0 1 1 0 1 1 0 0 0 1 1 0 1 1 1 2 2 2 1 1 3 2 0 1 1 0 2 1 2 3 2 2 2 3 3 3 3 3
2 3 3 3 3 4 4 4 3 3 5 6 6 6 6 7 6 7 7 6 6 7 8 8 8 8 8 9 9 8 8 8 8 7 7 6 6 6 4 3 2 2 1 0 1 1 1 1 1 1 1 1 1 1 1 1 1 1 1 2 4 4 4 4 3 2 2 3 3 2 1 1 2 2 1 0 2 3 3 4 4 3 3 3 3
2 2 2 3 4 4 4 4 4 4 5 6 5 5 6 7 7 7 7 8 7 7 8 8 8 8 8 8 9 9 10 9 9 8 8 7 7 6 5 3 2 2 1 1 2 2 3 3 3 3 3 3 3 3 3 3 2 2 3 5 7 6 5 5 5 5 5 4 2 2 3 3 3 4 3 3 3 4 4 4 4 3 3 3 3
2 2 2 2 3 3 3 3 4 5 4 5 7 6 6 6 8 8 8 8 8 8 8 9 9 9 8 8 8 9 9 9 10 9 9 9 8 7 6 4 4 4 3 1 2 3 3 4 4 5 5 5 5 4 4 4 3 4 7 8 7 5 4 5 5 6 7 6 5 4 3 4 4 4 4 4 4 4 4 4 3 3 4 4 4
1 2 2 2 2 4 4 3 4 5 5 4 6 7 6 6 7 8 8 8 9 9 9 9 9 10 10 10 10 10 9 10 10 10 10 9 9 8 7 6 6 6 5 4 3 4 4 4 5 5 5 6 6 6 5 5 6 8 10 9 7 5 5 4 4 5 6 7 8 7 4 4 5 6 5 5 5 5 5 5 5 5 5 5 5
Wind_Direction
346 343 340 336 332 329 326 321 315 310 305 301 298 296 291 287 284 275 264 262 262 263 262 259 257 254 248 241 234 226 220 216 212 210 209 207 209 213 209 206 206 207 206 206 209 208 207 209 209 206 207 216 220 217 216 220 220 221 213 196 200 199 176 165 157 157 167 163 166 179 176 165 168 170 155 151 155 148 153 167 157 149 152 157 164
349 345 340 336 333 329 326 323 320 316 312 306 301 298 295 292 288 275 264 262 262 263 262 260 259 257 254 244 233 229 222 215 210 207 208 205 201 203 204 202 206 213 212 209 210 209 206 205 206 206 210 214 214 213 217 222 217 215 214 199 196 200 178 160 155 156 167 175 174 175 173 169 171 169 158 157 163 160 157 161 156 156 162 161 157
350 345 340 337 334 330 328 327 325 322 317 312 308 304 300 299 294 279 267 263 263 266 266 264 263 264 267 261 245 233 224 218 216 210 206 203 199 200 202 202 205 212 213 207 204 206 207 203 201 203 207 212 213 213 217 221 216 209 212 205 197 198 181 166 163 160 163 174 180 173 171 175 171 164 161 161 166 167 162 162 166 167 167 168 167
349 344 339 336 335 334 333 330 328 327 323 318 314 311 307 305 301 290 279 271 267 269 271 271 272 273 276 273 263 247 235 229 224 213 205 203 201 201 202 205 208 209 210 206 203 205 205 200 198 200 202 207 211 212 215 217 212 208 212 208 196 184 178 174 169 166 164 169 180 174 168 174 171 163 163 163 168 173 167 164 170 166 162 167 171
346 344 341 339 339 339 338 336 333 332 328 323 319 315 311 308 305 299 290 281 273 271 271 272 274 273 273 275 270 260 249 241 233 219 205 201 200 200 202 204 208 209 210 208 204 205 202 196 196 200 202 205 206 209 213 209 208 214 211 204 190 171 171 174 170 172 170 169 175 171 164 171 174 169 169 166 169 174 167 165 167 162 160 162 162
346 346 344 344 344 343 342 341 339 337 334 329 323 318 314 308 304 301 296 291 283 275 269 268 271 270 269 270 266 261 252 245 246 236 212 201 198 198 202 201 201 205 210 212 209 206 202 196 196 200 202 203 201 206 211 206 210 218 205 195 191 174 169 175 176 177 176 171 168 163 163 172 172 168 168 166 168 171 164 163 164 158 160 161 158
346 347 349 350 349 348 346 345 343 341 338 333 326 322 319 313 305 300 297 294 286 276 268 267 271 269 266 264 259 258 253 244 248 246 221 204 200 199 202 201 198 201 207 215 213 206 200 198 198 201 202 201 199 202 207 210 220 219 169 169 190 186 171 173 178 179 176 170 165 162 164 168 166 164 166 163 165 166 160 161 165 158 161 169 166
350 351 357 356 352 351 349 348 346 343 341 340 335 329 326 322 315 305 297 291 284 280 274 270 270 264 262 261 254 255 253 239 238 238 222 209 204 200 200 199 198 201 207 219 218 204 198 200 200 200 198 198 201 201 203 211 225 236 178 167 183 185 178 182 180 173 167 161 163 169 165 163 166 166 166 164 166 169 166 168 171 163 165 178 179
357 357 2 0 353 351 351 349 347 344 343 344 343 338 332 328 324 315 304 294 286 284 279 274 273 267 263 259 247 250 252 237 230 228 217 208 203 196 197 199 199 203 207 220 223 205 196 202 205 204 198 196 201 205 209 207 204 206 190 172 177 182 186 195 177 158 160 168 172 173 165 163 171 169 164 170 179 178 170 170 171 166 169 179 183
1 359 4 4 356 352 352 350 348 347 347 347 345 343 338 333 330 325 318 306 294 288 282 279 277 271 264 251 237 238 237 223 221 220 211 207 200 192 194 195 197 202 202 209 218 208 200 206 206 207 206 201 201 204 206 201 189 186 183 174 175 179 186 202 173 151 158 179 186 178 171 166 172 171 166 175 185 175 162 169 176 172 178 181 166
4 1 5 6 360 356 355 353 351 350 351 350 348 346 342 339 336 334 333 326 313 300 287 279 275 269 260 241 228 230 223 208 210 216 214 207 195 189 195 195 197 201 199 206 218 211 201 204 204 203 205 200 193 188 187 186 179 181 186 177 172 176 187 198 170 143 152 168 184 191 182 170 171 175 172 176 180 171 165 178 184 179 190 190 159
8 5 7 7 4 2 358 356 354 353 354 354 352 349 346 345 344 343 344 342 335 325 305 288 279 272 262 240 224 226 223 210 205 211 212 206 195 190 197 202 203 199 198 213 224 210 190 190 195 197 199 195 188 180 175 176 173 174 180 176 173 180 185 180 168 147 150 161 179 207 191 176 175 180 181 180 179 179 180 186 193 193 184 160 149
12 9 9 8 7 5 0 359 358 357 358 357 354 353 351 350 349 349 350 350 349 347 336 319 301 285 272 249 227 218 215 211 206 206 210 208 202 195 196 206 208 202 205 218 227 217 193 185 185 182 182 180 176 173 168 161 151 154 160 159 161 173 174 170 173 165 155 166 188 198 192 183 170 164 172 176 173 177 183 184 191 187 135 118 132
16 12 10 9 9 8 5 3 2 1 2 0 358 358 356 354 352 352 354 356 355 352 348 345 335 317 295 266 233 204 200 206 204 205 207 203 202 202 204 214 213 210 214 218 227 232 202 177 170 169 168 163 161 169 171 161 144 135 135 133 136 146 153 158 167 170 168 178 181 163 150 149 141 131 136 150 157 171 182 181 175 141 107 107 119
19 14 11 10 9 9 8 5 3 3 3 3 3 2 359 357 355 355 357 358 358 354 350 351 352 349 336 298 245 201 209 213 202 201 201 199 206 211 213 225 220 211 214 212 222 241 213 173 167 166 162 159 163 173 173 163 153 140 130 133 137 136 134 136 140 147 154 156 145 132 129 134 136 134 135 131 115 133 146 142 136 135 127 120 113
21 16 13 11 9 9 9 7 5 4 4 6 6 4 2 0 358 358 358 359 2 3 2 4 4 4 1 351 326 206 227 222 201 197 199 202 212 213 213 232 227 201 187 184 189 219 216 184 169 153 149 155 164 173 167 150 140 130 125 128 131 126 120 121 130 139 143 142 142 140 139 141 145 148 148 143 128 117 125 132 131 134 141 140 127
21 17 14 11 8 8 9 8 7 5 6 8 8 6 6 5 3 3 4 5 7 8 9 15 22 23 24 29 36 28 304 223 197 197 198 199 206 206 201 203 184 140 132 146 154 135 131 161 139 126 136 145 146 154 155 143 131 125 122 119 115 111 108 108 119 131 135 136 137 137 138 141 145 148 146 143 137 123 122 145 138 141 159 148 130
20 18 15 10 9 9 8 9 10 9 9 9 9 9 10 10 10 10 12 14 15 15 15 23 36 44 47 51 59 63 58 67 144 168 178 191 193 191 167 143 127 113 115 126 129 119 116 117 112 114 126 133 133 137 140 135 128 126 125 119 110 104 103 105 108 111 114 119 122 122 124 125 126 130 131 136 135 107 80 98 132 173 171 153 138
19 18 15 12 11 11 10 9 10 11 13 13 13 15 16 15 16 18 21 20 20 23 25 29 38 45 49 54 64 74 73 71 90 110 111 133 149 136 125 129 124 113 109 110 107 109 114 116 115 120 126 129 130 131 130 127 125 123 119 116 113 111 108 107 105 105 103 102 101 98 99 99 98 103 107 113 123 104 78 73 78 102 141 140 141
20 19 17 15 15 15 14 13 12 14 17 20 23 24 23 22 22 23 25 23 21 26 30 33 37 41 47 52 58 65 69 69 75 88 91 107 134 141 137 133 126 116 111 109 104 102 106 113 118 122 126 128 128 128 126 124 125 124 117 112 115 120 120 115 112 109 102 97 96 93 90 89 84 83 83 79 82 88 83 79 73 65 86 124 131
22 22 21 20 20 18 18 18 16 13 16 24 31 32 30 31 31 31 32 31 28 29 32 35 37 39 45 51 54 56 61 63 67 73 68 69 113 140 137 130 125 118 112 107 102 100 101 106 112 116 117 116 115 121 125 123 123 123 121 121 125 125 119 113 109 106 102 100 100 96 92 90 84 79 77 71 67 68 74 83 86 76 70 83 107
25 27 27 26 26 24 24 29 36 33 25 25 33 36 34 35 36 39 42 42 40 35 33 36 39 40 45 50 51 54 59 61 65 71 74 82 99 114 121 124 126 121 113 106 102 100 99 99 102 108 110 105 103 110 117 117 114 113 114 120 124 117 108 105 103 102 102 101 99 95 92 90 85 81 79 74 70 69 67 73 86 86 79 76 81
30 33 33 33 34 34 33 37 45 49 44 39 39 39 38 38 37 37 39 41 43 41 34 34 40 42 44 46 46 50 57 61 63 68 77 89 98 106 114 119 121 119 111 104 101 101 100 98 98 103 106 101 98 101 106 107 107 108 109 111 110 104 100 99 97 96 94 92 93 95 94 93 91 87 84 79 76 75 73 72 77 85 89 87 83
35 39 39 39 38 37 38 39 39 42 44 45 42 36 34 38 40 40 38 37 41 43 39 38 42 42 43 43 42 46 53 58 60 65 72 80 88 98 106 112 116 117 110 103 101 100 99 99 99 101 102 101 100 100 101 103 105 106 107 107 104 101 98 95 93 93 92 92 94 91 85 87 91 89 87 87 85 83 83 81 78 79 83 86 88
39 42 44 45 41 36 37 37 35 33 35 38 37 31 28 31 34 39 42 41 41 42 42 43 45 45 45 44 42 45 51 55 57 61 66 72 79 88 96 101 105 107 103 100 100 101 101 102 103 102 102 104 106 103 98 98 101 104 105 104 100 96 93 92 94 94 92 92 92 85 78 80 87 91 95 98 96 93 91 91 90 90 89 88 88
41 43 46 51 50 45 41 38 38 38 37 35 34 32 31 31 30 30 37 43 44 43 43 45 47 48 49 48 44 46 51 54 56 59 64 72 79 85 91 93 95 97 98 99 101 102 103 102 101 101 101 102 102 100 96 94 95 98 99 99 97 93 91 93 97 97 94 94 94 92 91 92 96 101 104 104 103 104 109 112 110 110 107 100 94
40 40 41 48 53 51 49 45 44 46 46 44 42 37 33 35 37 36 33 35 40 43 45 48 49 47 48 50 50 50 51 51 53 56 61 70 79 85 90 92 95 97 99 101 101 100 100 98 96 95 94 92 91 93 94 92 92 92 92 95 98 98 97 98 99 99 99 99 99 101 105 107 107 107 105 105 105 105 112 121 121 119 119 114 108
40 39 36 39 44 48 54 55 53 51 50 48 48 45 41 39 42 43 41 39 41 44 47 51 53 54 54 54 55 55 53 48 47 50 59 72 82 87 91 93 95 97 97 99 100 98 96 93 90 88 87 86 86 86 85 84 83 83 84 87 92 97 98 98 98 99 101 105 109 112 115 116 114 112 108 106 105 104 107 111 110 115 123 123 119
43 41 36 35 37 40 46 53 60 65 60 54 51 50 49 50 52 51 50 50 52 55 57 57 58 61 62 61 58 57 55 50 45 47 59 75 85 90 93 93 93 94 96 98 98 95 90 86 82 81 82 83 83 83 82 81 82 82 83 83 84 89 93 93 93 95 101 108 113 115 115 114 113 113 112 106 99 97 98 99 100 106 112 111 108
46 46 42 37 37 40 41 42 47 57 66 67 64 58 54 55 58 60 59 58 59 60 63 64 64 63 64 63 61 60 59 57 54 55 62 71 79 86 92 95 96 96 98 96 92 86 83 81 79 79 80 80 80 80 81 83 86 88 88 87 86 89 93 92 93 98 102 103 103 106 112 116 116 115 110 104 99 95 91 92 96 98 98 106 106
47 48 46 41 38 42 46 45 45 47 52 63 75 74 66 61 60 62 64 65 64 63 63 62 62 62 63 64 64 64 65 66 66 66 68 73 78 83 86 91 97 99 96 90 85 83 83 83 83 83 83 83 82 81 81 83 86 87 88 87 87 89 91 90 91 94 95 93 94 100 104 106 106 106 104 102 103 99 93 91 91 87 84 90 94
45 47 49 45 41 43 47 47 47 48 48 50 59 71 78 75 71 68 67 64 62 61 60 58 57 56 57 58 60 62 63 63 65 67 67 70 79 86 85 85 87 91 92 92 90 88 88 89 87 86 87 86 85 82 81 81 83 86 87 85 83 83 84 86 89 91 93 94 95 96 96 97 98 100 99 98 97 96 93 91 86 80 76 76 76
49 44 45 48 46 46 49 49 47 48 50 50 51 55 63 73 81 83 78 69 61 57 56 55 54 53 52 51 51 54 57 59 61 63 63 64 69 75 79 79 72 71 82 92 92 89 90 92 90 87 88 90 91 89 87 86 86 87 86 85 85 82 80 85 90 91 93 97 99 98 97 99 99 98 94 92 92 95 95 96 98 99 96 95 97
67 55 46 48 50 49 49 49 48 49 51 51 51 54 56 57 63 72 76 71 63 57 55 55 55 52 50 49 47 47 49 54 60 63 63 65 67 67 70 73 69 66 75 88 92 93 92 91 91 90 92 95 96 95 95 96 94 93 92 91 93 90 86 88 93 95 95 98 100 101 102 103 104 104 104 105 106 106 98 89 92 99 99 101 103
74 66 54 52 54 51 51 51 48 48 50 50 50 53 55 56 56 54 51 50 49 48 52 57 56 51 49 47 46 44 43 45 52 60 63 63 65 64 66 67 68 70 76 82 87 89 86 84 87 90 92 97 97 95 97 98 96 96 96 95 94 94 95 96 98 98 99 97 94 92 92 91 89 86 86 90 96 101 99 93 89 93 91 88 88
56 60 54 54 58 55 51 52 52 50 51 52 52 51 50 50 50 49 47 44 40 38 43 52 52 47 45 45 45 44 42 41 44 50 58 65 61 54 55 70 81 87 93 94 92 90 85 85 89 92 96 100 99 95 98 102 102 101 100 97 95 94 96 98 99 97 97 96 93 90 87 85 86 86 86 86 86 88 91 89 83 82 85 85 83
48 48 42 44 56 60 55 54 54 52 51 50 50 51 50 47 45 44 42 40 36 33 34 35 32 31 35 38 42 46 45 41 39 40 45 54 56 49 45 62 79 84 91 97 100 100 94 89 91 99 104 106 101 97 95 95 99 106 106 101 98 99 99 101 101 101 103 101 97 93 92 92 97 105 111 112 111 110 113 111 105 100 90 73 74
57 49 40 40 48 55 57 56 54 50 49 50 48 47 46 46 45 44 41 39 35 30 29 31 31 27 25 26 30 39 43 42 37 32 31 35 43 48 49 50 54 59 63 66 70 79 86 90 97 104 109 110 105 101 98 93 95 103 98 89 94 107 110 104 97 97 102 105 105 108 112 113 110 108 109 111 109 111 119 124 122 123 109 70 61
64 54 47 51 56 55 51 53 53 49 47 49 51 48 44 41 39 37 36 36 35 32 32 35 35 29 25 22 17 15 25 38 39 34 32 31 33 40 46 47 49 55 58 57 57 63 73 83 91 95 104 111 107 105 109 108 104 100 90 87 102 120 125 118 112 113 117 122 128 131 128 124 120 114 110 107 103 101 100 91 81 88 89 78 73
66 59 53 56 62 60 54 52 52 48 45 46 48 46 43 39 35 33 31 32 35 36 38 44 42 33 25 23 17 9 15 35 43 39 38 37 33 34 39 40 41 45 48 50 55 59 62 70 76 78 85 95 98 102 111 114 114 117 120 121 128 137 139 138 137 136 132 131 133 132 127 125 126 120 107 100 102 107 110 106 93 73 75 85 92
61 65 60 52 53 57 55 51 48 45 44 45 44 43 43 41 38 37 35 33 36 40 43 52 54 42 30 32 31 21 20 35 41 38 38 41 37 34 35 35 35 37 37 38 41 45 49 60 71 82 87 89 93 100 102 108 122 134 138 136 134 135 138 139 132 127 127 125 124 126 126 120 111 103 96 94 110 133 144 137 139 130 99 81 65
51 55 52 46 46 50 52 53 49 42 42 44 42 40 42 43 42 43 42 39 40 42 41 47 52 42 30 34 39 32 28 35 39 35 34 36 36 35 35 35 35 34 32 31 29 31 41 55 68 85 93 94 103 111 117 134 147 143 140 142 137 132 137 134 126 126 133 132 122 112 97 79 78 89 96 93 145 145 104 61 56 81 87 75 59
51 52 48 45 45 43 44 49 48 39 37 40 35 32 35 39 39 40 41 42 43 42 40 41 39 27 19 26 32 30 31 36 38 34 32 31 32 34 34 33 31 30 32 34 37 41 53 66 76 86 96 107 114 108 105 137 156 149 142 141 136 131 128 131 141 158 165 143 126 111 95 89 94 105 110 74 11 47 72 49 353 341 344 22 101
49 51 47 45 47 44 39 38 38 34 29 19 14 22 28 32 33 33 34 34 36 38 38 38 33 23 18 22 26 26 28 31 32 31 31 30 30 31 32 31 27 25 29 36 44 54 60 67 84 93 99 117 130 10 27 56 77 80 100 136 151 161 145 133 147 170 171 149 146 151 152 144 136 129 134 129 5 354 59 38 356 340 333 337 343
50 48 43 37 39 41 38 32 29 29 26 17 12 18 22 23 24 27 26 21 20 23 28 29 27 25 23 23 23 24 25 26 26 24 24 26 26 27 30 32 29 27 33 40 50 58 53 60 100 120 124 127 141 5 29 58 62 27 42 81 130 150 149 150 147 132 125 135 152 174 180 169 152 17 112 118 67 318 319 10 16 351 311 310 323
44 33 36 42 36 28 27 29 24 18 19 22 17 13 15 16 13 13 16 14 8 8 14 16 14 15 17 17 18 19 19 19 20 16 15 17 18 21 28 32 27 30 46 49 47 51 43 45 79 115 133 113 114 129 129 148 207 294 48 60 55 85 126 180 190 162 168 183 175 358 189 172 205 301 294 270 298 322 336 329 323 318 307 300 289
57 21 25 43 41 27 24 29 19 359 2 16 16 6 5 8 4 359 1 2 352 351 358 1 360 0 0 0 3 5 3 3 7 8 6 3 360 5 20 29 22 25 55 63 29 29 185 30 54 90 158 118 113 169 327 328 215 220 208 216 196 157 170 193 176 129 198 210 200 143 100 126 286 296 254 237 273 307 329 305 286 275 274 275 258
46 28 24 19 18 21 21 17 4 350 355 3 2 355 354 357 355 353 352 352 348 349 351 350 350 351 350 346 344 345 344 345 345 346 347 348 345 345 351 357 353 1 29 151 230 235 223 229 239 239 241 246 246 260 293 289 253 230 198 212 221 226 228 219 195 180 211 222 220 228 227 248 316 319 314 212 297 308 303 294 293 277 252 252 241
17 23 27 12 360 4 10 357 345 349 355 347 341 352 360 352 345 348 353 354 351 348 346 348 350 351 347 341 337 335 334 333 329 325 327 334 336 332 324 302 284 307 323 246 209 216 224 229 231 231 236 242 247 255 264 270 264 239 227 237 248 256 255 246 238 233 231 224 226 251 258 259 275 291 290 276 282 291 288 282 282 272 250 241 232
9 347 6 11 345 339 357 349 335 347 2 347 339 353 4 352 345 352 358 351 344 343 347 349 346 341 340 341 338 334 331 328 325 322 322 323 322 320 312 289 257 255 267 248 211 212 219 225 229 232 234 237 237 240 248 254 248 236 239 248 259 263 257 256 257 254 245 234 221 226 258 271 265 266 274 273 269 275 279 273 262 257 249 233 223
7 338 350 346 316 327 350 342 326 344 10 358 338 341 349 349 348 351 353 350 348 346 346 346 340 338 342 344 341 337 335 331 328 328 327 326 324 318 310 293 265 249 245 239 223 213 209 213 221 226 229 231 232 234 243 246 240 240 249 258 262 259 260 271 275 265 256 247 234 224 234 272 271 258 260 270 270 268 275 275 260 248 246 239 224